カタログに戻る

TURKSAT 3A

運用中通信GEO
NORAD 33056·PAYLOAD·🇹🇷 Turkey

打ち上げ Jun 12, 2008 から Guiana Space Centre

Loading…

TLE

最新Source: Space-Track

元期: Sep 14, 2026, 14:00 UTC

1 33056U 08030B   26257.58342105  .00000138  00000-0  00000-0 0  9990
2 33056   0.0536  82.3906 0004438  75.5914  87.6030  1.00274008 53252

AllMySatでTURKSAT 3Aをリアルタイム追跡

Download on the App Store